EW5738 Weather Reports


Display with metric or nautical units.
time (UTC)temp
F
wind
direction
speed
MPH
gust
MPH
rain 1hr
in
rain 24hr
in
rain mn
in
humidity
%
barometer
mb
20260504230036 69 186 3.0 7.0 0.00 0.01 0.01 96 1018.7
20260504224522 67 152 3.0 8.0 0.00 0.01 0.01 96 1018.7
20260504223016 67 152 2.0 4.0 0.00 0.01 0.01 96 1018.7
20260504221534 66 46 0.0 3.0 0.01 0.01 0.01 96 1018.7
20260504220012 65 89 0.0 2.0 0.01 0.01 0.01 96 1018.6
20260504214511 65 187 1.0 3.0 0.01 0.02 0.01 96 1018.6
20260504213009 64 135 0.0 2.0 0.01 0.02 0.01 96 1018.5
20260504211508 64 135 1.0 3.0 0.00 0.02 0.00 96 1018.4
20260504210006 64 135 0.0 2.0 0.00 0.02 0.00 95 1018.3
20260504204502 64 145 1.0 3.0 0.00 0.02 0.00 95 1018.0
20260504203001 64 178 0.0 3.0 0.00 0.02 0.00 95 1017.9
20260504201559 64 295 1.0 3.0 0.00 0.02 0.00 95 1018.0
20260504194600 64 276 2.0 3.0 0.00 0.02 0.00 95 1017.5
20260504193102 64 173 1.0 3.0 0.00 0.02 0.00 95 1017.4
20260504191601 64 310 1.0 3.0 0.00 0.02 0.00 95 1017.2
20260504190054 64 178 0.0 2.0 0.00 0.02 0.00 95 1017.2
20260504184553 64 306 1.0 3.0 0.00 0.02 0.00 95 1017.1
20260504183051 65 308 0.0 3.0 0.00 0.02 0.00 95 1017.1
20260504181551 65 223 2.0 4.0 0.00 0.02 0.00 95 1017.1
20260504180050 65 46 0.0 4.0 0.00 0.02 0.00 95 1016.8
20260504174547 66 269 1.0 3.0 0.00 0.02 0.00 95 1016.8
20260504173046 66 269 2.0 3.0 0.00 0.02 0.00 95 1016.9
20260504171544 66 283 2.0 5.0 0.00 0.02 0.00 95 1017.0
20260504100122 71 170 2.0 4.0 0.00 0.02 0.02 87 1018.9
20260504081505 72 102 1.0 7.0 0.00 0.02 0.02 84 1017.9
20260504044551 78 15 1.0 5.0 0.00 0.02 0.02 70 1016.7
20260504043054 78 340 2.0 5.0 0.00 0.02 0.02 69 1016.6
20260504041549 77 269 1.0 4.0 0.00 0.02 0.02 68 1016.7
20260504040107 77 129 2.0 6.0 0.00 0.02 0.02 70 1016.8
20260504034546 78 122 1.0 7.0 0.00 0.02 0.02 69 1016.8
20260504033043 78 334 1.0 5.0 0.00 0.02 0.02 72 1016.9
20260504031542 78 286 2.0 5.0 0.00 0.02 0.02 69 1017.0
20260504030039 78 135 1.0 9.0 0.00 0.02 0.02 69 1017.3
20260504024536 78 223 0.0 6.0 0.00 0.02 0.02 69 1017.5
20260504023034 79 147 2.0 9.0 0.00 0.02 0.02 68 1017.7
20260504021530 78 13 2.0 8.0 0.00 0.02 0.02 70 1017.9
20260504020027 77 167 4.0 8.0 0.00 0.02 0.02 70 1018.2
20260504014526 78 178 2.0 10.0 0.00 0.02 0.02 69 1018.4
20260504013022 77 129 3.0 8.0 0.00 0.02 0.02 74 1018.7
20260504011520 77 170 2.0 10.0 0.00 0.02 0.02 75 1018.9
20260504010016 77 136 3.0 11.0 0.00 0.02 0.02 75 1019.1
20260504004513 75 188 1.0 9.0 0.00 0.02 0.02 79 1019.3
20260504003011 74 178 2.0 5.0 0.00 0.02 0.02 82 1019.4
20260504001506 74 126 2.0 9.0 0.00 0.02 0.02 83 1019.6
20260504000003 73 160 3.0 9.0 0.00 0.02 0.02 84 1019.8
20260503234600 72 147 5.0 7.0 0.00 0.02 0.02 85 1019.8
20260503233058 71 157 3.0 7.0 0.00 0.02 0.02 87 1019.7
20260503231554 70 193 3.0 5.0 0.00 0.02 0.02 89 1019.7